Home   Weather   Jamestown   Past weeks

Flag for Saint Helena Past Weather in Jamestown, Saint Helena — Yesterday and Last 2 Weeks

Now
66 °F

Mild.


Feels Like: 66 °F
Forecast: N/A
Wind: 18 mph from Southeast

Location: Saint Helena Island

Current Time: May 27, 2017 at 7:20:41 pm

Latest Report: May 27, 2017 at 6:00 pm


Visibility: N/A

Pressure: 30.09 "Hg

Humidity: 82%

Dew Point: 61 °F

Location of JamestownLocation

Past Weather in Jamestown — Graph

°F

Jamestown Temperature Yesterday

Maximum temperature yesterday: 70 °F (at 1:00 pm)
Minimum temperature yesterday: 64 °F (at 7:00 pm)
Average temperature yesterday: 66 °F

High & Low Weather Summary for the Past Weeks

 TemperatureHumidityPressure
High75 °F (May 14, 11:00 am)100% (May 25, 1:00 pm)30.14 "Hg (May 25, 1:00 pm)
Low61 °F (May 22, 11:00 pm)65% (May 18, 11:00 am)29.94 "Hg (May 22, 5:00 pm)
Average68 °F88%30.05 "Hg
* Reported May 12 5:00 pm — May 27 5:00 pm, Jamestown. Weather by CustomWeather, © 2017

Note: Actual official high and low records may vary slightly from our data, if they occured in-between our weather recording intervals... More about our weather records

Advertising

Jamestown Weather History for the Previous 24 Hours

Scroll right to see more
 ConditionsComfort  
Time TempWeatherWind HumidityBarometerVisibility
5:00 pm
Sat, May 27
67 °FMild.18 mph83%30.08 "HgN/A
4:00 pm66 °FMild.17 mph88%30.08 "HgN/A
3:00 pm67 °FMild.14 mph93%30.09 "HgN/A
1:00 pm66 °FLow clouds.18 mph87%30.13 "Hg6 mi
12:00 pm66 °FLow clouds.17 mph86%30.14 "Hg2 mi
11:00 am67 °FSprinkles. Low clouds.18 mph84%30.14 "Hg5 mi
10:00 am68 °FMild.21 mph80%30.14 "HgN/A
8:00 am67 °FMild.21 mph84%30.11 "HgN/A
7:00 am66 °FMild.25 mph84%30.09 "HgN/A
5:00 am66 °FMild.26 mph89%30.07 "HgN/A
4:00 am66 °FMild.21 mph89%30.07 "HgN/A
3:00 am65 °FMild.23 mph87%30.08 "HgN/A
1:00 am66 °FMild.21 mph89%30.10 "HgN/A
12:00 am64 °FMild.22 mph99%30.12 "HgN/A
11:00 pm
Fri, May 26
66 °FMild.21 mph93%30.12 "HgN/A
10:00 pm65 °FMild.18 mph93%30.12 "HgN/A
9:00 pm65 °FMild.13 mph87%30.11 "HgN/A
7:00 pm64 °FMild.20 mph99%30.08 "HgN/A
Weather by CustomWeather, © 2017

See weather overviewHow to use our weather pages